Defiance, OH

8:45 AM EDT on April 27, 2017 (GMT -0400)
Defiance Memorial

Weather History for KDFI - March, 2014

Change the Weather History Date:

Saturday, March 15, 2014

  Actual Average Record
Temperature  
Mean Temperature 38 °F -  
Max Temperature 43 °F 45 °F 80 °F (2012)
Min Temperature 33 °F 26 °F 6 °F (1993)
Degree Days  
Heating Degree Days 27    
Moisture  
Dew Point 26 °F    
Average Humidity 65    
Maximum Humidity 79    
Minimum Humidity 51    
Precipitation  
Precipitation 0.00 in - - ()
Sea Level Pressure  
Sea Level Pressure 30.03 in    
Wind  
Wind Speed 7 mph (WNW)    
Max Wind Speed 13 mph    
Max Gust Speed 17 mph    
Visibility 10 miles    
Events      
Averages and records for this station are not official NWS values.
T = Trace of Precipitation, MM = Missing Value Source: NWS Daily Summary

Daily Weather History Graph

Daily Weather History Graph

Search for Another Location

Airport or City:

Trip Planner

Search our weather history database for the weather conditions in past years. The results will help you decide how hot, cold, wet, or windy it might be!

Date:

Astronomy

Mar. 15, 2014 Rise Set
Actual Time 7:49 AM EDT 7:44 PM EDT
Civil Twilight 7:21 AM EDT 8:11 PM EDT
Nautical Twilight 6:49 AM EDT 8:44 PM EDT
Astronomical Twilight 6:17 AM EDT 9:16 PM EDT
Moon 7:02 PM EDT (3/15) 7:01 AM EDT (3/15)
Length of Visible Light 12h 50m
Length of Day
11h 54m
Waxing Gibbous, 99% of the Moon is Illuminated
Mar 15
Waxing Gibbous
Mar 16
Full
Mar 23
Last Quarter
Mar 30
New
Apr 7
First Quarter

Hourly Weather History & Observations

Time (EDT) Temp. Windchill Dew Point Humidity Pressure Visibility Wind Dir Wind Speed Gust Speed Precip Events Conditions
12:53 AM 39.0 °F 34.8 °F 28.9 °F 67% 29.83 in 10.0 mi Variable 5.8 mph - N/A   Clear
1:53 AM 39.0 °F 35.7 °F 30.0 °F 70% 29.83 in 10.0 mi Variable 4.6 mph - N/A   Clear
2:53 AM 36.0 °F 31.1 °F 30.0 °F 79% 29.84 in 10.0 mi WSW 5.8 mph - N/A   Clear
3:24 AM 37.0 °F 31.6 °F 30.0 °F 76% 29.84 in 10.0 mi WSW 6.9 mph - N/A   Mostly Cloudy
3:53 AM 37.0 °F 31.6 °F 30.0 °F 76% 29.85 in 10.0 mi WSW 6.9 mph - N/A   Scattered Clouds
4:53 AM 37.0 °F 31.0 °F 28.9 °F 73% 29.86 in 10.0 mi WSW 8.1 mph - N/A   Clear
5:53 AM 37.0 °F 31.0 °F 28.0 °F 70% 29.88 in 10.0 mi WSW 8.1 mph 17.3 mph N/A   Clear
6:53 AM 35.1 °F 31.0 °F 28.0 °F 76% 29.90 in 10.0 mi WSW 4.6 mph - N/A   Clear
7:53 AM 35.1 °F 30.1 °F 28.0 °F 76% 29.93 in 10.0 mi West 5.8 mph - N/A   Clear
8:53 AM 36.0 °F 33.3 °F 28.9 °F 76% 29.97 in 10.0 mi Variable 3.5 mph - N/A   Clear
9:53 AM 37.9 °F 33.5 °F 28.9 °F 70% 30.01 in 10.0 mi Variable 5.8 mph - N/A   Clear
10:53 AM 37.9 °F 31.5 °F 27.0 °F 65% 30.04 in 10.0 mi WNW 9.2 mph 16.1 mph N/A   Clear
11:53 AM 39.9 °F 33.9 °F 26.1 °F 58% 30.07 in 10.0 mi WNW 9.2 mph - N/A   Clear
12:53 PM 41.0 °F 34.3 °F 25.0 °F 53% 30.07 in 10.0 mi NW 11.5 mph - N/A   Clear
1:53 PM 41.0 °F 35.8 °F 24.1 °F 51% 30.11 in 10.0 mi WSW 8.1 mph - N/A   Scattered Clouds
2:53 PM 42.1 °F 37.7 °F 25.0 °F 51% 30.12 in 10.0 mi Variable 6.9 mph - N/A   Partly Cloudy
3:53 PM 41.0 °F 36.4 °F 25.0 °F 53% 30.12 in 10.0 mi Variable 6.9 mph - N/A   Overcast
4:53 PM 39.9 °F 35.1 °F 25.0 °F 55% 30.12 in 10.0 mi NW 6.9 mph - N/A   Overcast
5:53 PM 41.0 °F 36.4 °F 25.0 °F 53% 30.13 in 10.0 mi Variable 6.9 mph - N/A   Partly Cloudy
6:53 PM 39.0 °F 35.7 °F 25.0 °F 57% 30.15 in 10.0 mi NW 4.6 mph - N/A   Clear
7:53 PM 37.0 °F 31.0 °F 25.0 °F 62% 30.16 in 10.0 mi NW 8.1 mph - N/A   Mostly Cloudy
8:53 PM 36.0 °F 29.6 °F 24.1 °F 62% 30.18 in 10.0 mi North 8.1 mph - N/A   Partly Cloudy
9:53 PM 34.0 °F 28.0 °F 23.0 °F 64% 30.21 in 10.0 mi NW 6.9 mph - N/A   Mostly Cloudy
10:53 PM 34.0 °F 26.6 °F 24.1 °F 67% 30.24 in 10.0 mi North 9.2 mph - N/A   Overcast
11:53 PM 33.1 °F 23.9 °F 19.0 °F 56% 30.23 in 10.0 mi North 12.7 mph - N/A   Overcast